TimePST,TemperatureF,Dew PointF,Humidity,Sea Level PressureIn,VisibilityMPH,Wind Direction,Wind SpeedMPH,Gust SpeedMPH,PrecipitationIn,Events,Conditions,WindDirDegrees,DateUTC
12:53 AM,48.0,7.0,19,30.17,10.0,West,6.9,-,N/A,,Clear,270,2014-01-26 08:53:00
1:53 AM,44.1,7.0,22,30.17,10.0,Calm,Calm,-,N/A,,Clear,0,2014-01-26 09:53:00
2:53 AM,42.1,8.1,25,30.17,10.0,Calm,Calm,-,N/A,,Clear,0,2014-01-26 10:53:00
3:53 AM,41.0,7.0,25,30.17,10.0,NW,5.8,-,N/A,,Clear,320,2014-01-26 11:53:00
4:53 AM,42.1,3.0,20,30.17,10.0,Calm,Calm,-,N/A,,Clear,0,2014-01-26 12:53:00
5:53 AM,43.0,7.0,23,30.17,10.0,West,4.6,-,N/A,,Clear,260,2014-01-26 13:53:00
6:53 AM,41.0,8.1,26,30.18,10.0,Calm,Calm,-,N/A,,Clear,0,2014-01-26 14:53:00
7:53 AM,44.1,10.9,26,30.19,10.0,Calm,Calm,-,N/A,,Clear,0,2014-01-26 15:53:00
8:53 AM,50.0,6.1,17,30.20,10.0,Calm,Calm,-,N/A,,Clear,0,2014-01-26 16:53:00
9:53 AM,53.1,5.0,14,30.21,10.0,Calm,Calm,-,N/A,,Clear,0,2014-01-26 17:53:00
10:53 AM,57.0,3.0,11,30.18,10.0,Calm,Calm,-,N/A,,Clear,0,2014-01-26 18:53:00
11:53 AM,59.0,3.0,11,30.14,10.0,East,3.5,-,N/A,,Clear,90,2014-01-26 19:53:00
12:53 PM,60.1,1.9,10,30.10,10.0,Calm,Calm,-,N/A,,Clear,0,2014-01-26 20:53:00
1:53 PM,61.0,3.9,10,30.07,10.0,East,3.5,-,N/A,,Clear,90,2014-01-26 21:53:00
2:53 PM,60.1,3.0,10,30.06,10.0,Calm,Calm,-,N/A,,Clear,0,2014-01-26 22:53:00
3:53 PM,59.0,9.0,14,30.06,10.0,South,3.5,-,N/A,,Clear,190,2014-01-26 23:53:00
4:53 PM,59.0,9.0,14,30.05,10.0,Calm,Calm,-,N/A,,Clear,0,2014-01-27 00:53:00
5:53 PM,57.0,10.0,15,30.05,10.0,South,3.5,-,N/A,,Clear,190,2014-01-27 01:53:00
6:53 PM,54.0,14.0,21,30.06,10.0,Calm,Calm,-,N/A,,Clear,0,2014-01-27 02:53:00
7:53 PM,50.0,15.1,25,30.06,10.0,NW,3.5,-,N/A,,Clear,320,2014-01-27 03:53:00
8:53 PM,48.9,15.1,26,30.06,10.0,NW,3.5,-,N/A,,Clear,310,2014-01-27 04:53:00
9:53 PM,50.0,17.1,27,30.06,10.0,NW,3.5,-,N/A,,Clear,320,2014-01-27 05:53:00
10:53 PM,48.0,19.0,32,30.06,10.0,NNE,5.8,-,N/A,,Clear,20,2014-01-27 06:53:00
11:53 PM,48.0,19.0,32,30.04,10.0,Calm,Calm,-,N/A,,Clear,0,2014-01-27 07:53:00